Theta_e
302 298 293 296 297 298 296 294 293 296 299 294 293 293 295 298 300 302 304 309 317 319 323 329 330 330 330 333 336 334 331 325 321 319 317 317 320 318 310 308 307 307 306 306
296 292 299 302 302 299 296 293 291 295 298 294 292 292 295 296 299 302 304 306 311 317 325 327 329 329 330 330 336 332 329 324 322 322 321 322 320 311 309 309 307 307 305 306
293 297 304 302 299 297 295 293 293 293 296 295 291 289 291 296 297 303 308 312 315 318 320 324 327 328 328 331 336 331 327 324 323 323 322 320 315 308 307 306 305 306 306 306
297 303 301 299 298 299 292 299 298 295 291 284 290 282 288 292 295 299 306 310 316 318 317 322 326 326 325 330 333 330 326 324 324 322 320 316 312 307 307 306 306 305 306 305
293 298 298 298 298 300 296 301 297 296 291 287 289 283 286 292 295 298 303 309 315 317 317 319 326 325 327 331 334 331 328 326 324 321 320 316 311 310 313 309 305 304 306 305
295 303 303 300 302 302 302 299 297 295 292 281 287 286 285 292 295 299 304 310 313 314 315 319 324 329 327 328 334 332 330 328 327 323 318 314 311 309 310 305 304 305 303 305
292 297 301 303 297 301 301 293 282 279 281 282 292 287 288 298 302 303 304 307 310 312 312 316 319 322 324 330 330 331 329 327 327 324 316 315 312 310 308 304 304 305 303 305
284 285 295 300 297 295 296 293 284 276 280 284 289 285 293 301 305 306 308 310 310 311 311 313 316 318 322 325 329 329 327 326 324 319 317 315 309 307 306 305 307 305 307 306
286 288 298 299 301 299 294 293 294 285 287 285 287 291 299 302 303 304 305 305 305 306 310 311 313 316 318 320 322 321 323 321 316 311 311 305 304 305 305 306 305 305 303 304
291 285 294 299 301 300 296 300 290 289 283 277 286 286 288 297 299 300 300 304 305 307 308 310 312 314 316 314 311 313 312 308 307 307 306 307 306 305 305 303 301 300 301 300
291 287 287 293 293 291 292 291 295 294 289 285 281 284 296 295 297 296 296 299 301 301 303 303 304 303 302 303 305 305 305 303 304 306 306 305 303 303 301 301 300 300 299 297
293 288 283 288 295 298 293 290 296 288 287 290 288 285 295 296 297 298 297 299 299 300 300 300 300 300 299 299 301 300 302 305 304 303 301 301 301 298 300 298 297 297 295 295
292 286 281 284 288 291 288 291 292 295 293 286 281 285 295 295 295 296 295 299 301 299 299 298 297 297 298 298 300 300 302 301 301 301 297 297 297 296 294 293 293 293 293 293
299 289 285 281 285 288 287 290 290 290 283 284 286 286 290 293 294 295 295 296 297 298 298 297 296 295 296 298 298 298 297 299 298 297 297 295 293 293 292 293 292 293 292 291
290 285 287 289 291 291 289 290 291 287 286 282 286 287 290 292 296 296 297 297 297 297 298 297 295 294 294 294 294 295 295 295 295 294 293 293 293 293 293 293 292 292 292 292
290 285 288 286 292 291 289 291 291 290 289 288 289 288 294 296 296 296 295 296 296 297 297 297 296 294 294 293 293 294 293 294 294 293 293 294 294 294 293 293 292 292 291 291
286 286 285 282 289 290 286 288 289 288 289 287 285 290 292 292 294 293 294 297 296 296 296 295 295 294 294 294 294 292 292 292 292 293 293 293 293 293 292 292 291 291 290 289
286 286 286 282 286 279 288 292 292 290 292 292 292 293 293 292 292 292 294 296 296 297 295 294 293 293 293 293 293 292 292 291 291 291 292 292 292 292 291 291 290 290 289 289
289 287 283 280 280 287 288 290 289 287 288 293 292 293 294 293 293 291 295 296 296 295 294 293 293 292 292 292 292 292 291 291 291 291 291 291 291 291 291 290 289 289 289 289
291 289 285 282 279 279 287 291 293 290 282 293 294 292 293 293 288 288 293 294 294 294 295 294 293 292 291 291 292 291 290 291 291 291 292 292 292 291 290 289 289 289 289 289
285 285 282 281 278 287 291 293 294 281 285 293 295 293 293 290 291 292 294 294 294 294 294 293 292 290 291 291 292 290 290 290 292 293 293 292 291 291 290 289 288 288 288 288
286 282 281 283 279 281 294 292 287 291 292 294 294 294 292 291 292 293 293 293 293 292 292 292 290 290 290 291 290 290 289 291 292 293 292 291 289 291 291 287 287 287 286 284
284 288 286 287 287 294 294 293 295 295 293 293 294 294 294 293 292 293 292 292 292 292 292 292 290 290 290 290 291 290 290 292 292 291 289 289 289 288 288 286 285 284 283 283
288 293 289 289 291 293 294 294 295 295 294 295 296 296 295 293 293 292 292 291 291 291 291 291 290 290 289 290 292 291 292 292 290 288 287 287 287 287 286 285 285 283 283 283
288 288 289 289 292 293 294 294 296 297 297 296 296 297 296 294 293 292 291 291 291 291 291 291 290 290 290 291 291 291 291 290 288 287 286 286 286 285 284 284 284 285 284 288
289 287 286 287 293 291 292 295 297 295 295 296 296 295 296 295 294 293 291 291 291 290 291 290 290 290 290 290 290 290 290 289 287 286 286 286 285 283 283 283 283 290 291 291
Wind_Speed
3 1 5 4 4 9 6 8 11 12 13 8 14 15 10 9 11 9 8 8 13 15 10 16 15 15 13 7 18 22 17 15 14 7 6 4 6 6 4 4 7 7 6 6
7 4 5 5 8 8 8 10 10 10 7 7 13 14 11 12 8 14 12 10 12 8 8 15 19 16 15 11 13 14 17 17 14 9 4 2 3 3 4 4 6 7 7 7
2 11 9 9 8 9 7 7 9 14 9 3 7 11 9 14 8 12 9 6 6 9 9 1 19 20 15 15 19 16 15 15 12 10 6 3 1 4 3 3 3 5 7 7
6 4 7 7 9 8 9 4 8 10 5 5 2 11 9 9 14 8 9 9 10 9 5 11 10 17 13 11 10 13 13 14 10 12 8 8 9 8 4 4 3 5 7 7
8 5 4 5 5 7 10 16 5 6 5 2 8 2 8 5 11 7 9 9 14 15 15 11 18 14 13 14 13 13 14 14 13 11 9 6 5 3 1 2 7 5 4 6
13 3 1 3 9 9 1 4 8 3 2 4 5 6 6 2 3 11 14 9 13 9 7 7 6 13 14 7 11 12 14 12 12 10 12 11 13 8 5 4 5 4 4 4
7 4 3 3 6 5 6 4 4 5 3 2 9 3 6 11 10 10 19 13 10 12 9 12 9 8 12 14 16 14 13 12 11 9 5 7 7 9 9 7 5 5 4 3
4 10 3 5 5 5 6 5 1 3 6 4 10 8 6 12 11 14 8 8 13 8 6 9 9 10 10 10 10 11 12 12 8 10 7 5 7 5 5 6 4 5 4 5
4 7 10 11 4 3 5 3 7 2 3 3 2 6 8 13 6 15 13 17 14 12 8 8 9 9 8 8 6 12 11 10 9 9 7 6 6 7 7 7 8 6 6 6
5 8 6 8 2 2 2 7 1 2 6 5 7 11 6 6 7 12 11 7 13 8 7 7 6 7 7 8 8 9 8 11 10 9 8 6 7 9 10 8 9 9 7 7
3 1 10 6 3 3 5 3 3 4 2 3 5 6 7 9 9 10 6 11 11 4 6 8 9 9 10 9 11 10 11 11 8 7 7 8 9 9 9 9 7 7 6 7
2 2 6 8 9 4 3 3 4 3 4 0 1 4 6 8 8 9 8 7 6 8 8 8 8 9 8 8 9 8 8 10 9 9 8 9 10 8 8 8 7 6 7 5
4 3 5 12 9 5 4 5 4 3 4 0 4 4 4 6 8 7 9 7 7 8 8 7 8 7 7 7 8 8 8 8 10 10 9 8 8 8 7 7 7 6 5 3
3 2 5 6 10 5 8 6 5 4 3 2 2 1 6 3 7 6 6 7 7 7 8 7 7 7 7 8 9 8 8 9 8 9 9 9 8 7 7 6 6 5 4 4
3 4 5 9 15 12 9 4 6 3 2 2 3 3 4 2 7 6 7 6 7 7 8 7 7 7 8 8 8 7 7 8 8 9 8 7 7 7 7 6 5 5 5 3
6 5 5 9 6 5 3 6 5 4 6 6 4 6 6 8 6 6 7 7 7 7 7 7 8 9 8 8 7 7 7 7 8 8 7 6 6 6 5 4 3 3 2 2
3 1 6 7 8 9 5 4 3 4 4 1 3 1 3 7 10 7 2 8 8 7 7 7 8 8 7 7 7 7 7 6 7 7 6 6 5 5 4 4 5 5 4 4
4 3 1 6 8 3 5 1 3 8 4 6 5 4 6 6 4 5 6 6 8 9 8 7 7 7 6 6 7 7 7 7 6 5 5 5 5 5 5 5 4 3 2 3
9 4 3 1 2 6 1 2 1 3 2 3 5 5 5 5 5 7 8 5 6 8 7 7 7 7 7 8 7 8 7 6 7 6 6 5 5 5 4 5 4 2 2 3
4 4 4 3 1 3 3 1 0 2 2 1 4 5 6 5 2 2 4 7 10 8 9 10 9 7 8 5 7 7 7 7 6 5 4 4 4 3 3 1 1 2 1 3
2 2 6 4 3 6 2 2 1 1 7 2 5 3 4 4 4 7 7 6 6 8 10 9 9 8 6 6 7 7 6 6 3 4 4 3 4 3 2 2 3 3 3 4
7 6 5 3 2 5 1 0 2 6 3 3 3 5 5 7 7 8 8 8 8 10 9 8 8 7 6 7 7 6 6 2 4 3 3 3 3 3 3 3 4 3 3 4
2 5 5 7 7 6 2 4 2 4 4 2 4 4 8 9 6 8 7 8 7 9 7 6 8 7 6 7 7 7 2 4 5 5 5 3 4 5 4 3 4 3 3 3
5 3 1 3 4 5 6 4 4 3 3 1 4 6 8 9 9 8 7 7 7 7 7 6 8 7 5 6 6 6 5 6 6 6 6 5 5 5 5 3 3 2 3 3
5 3 3 5 7 5 5 4 7 5 5 4 3 6 9 10 8 8 7 7 7 7 5 7 7 6 6 7 7 6 6 6 5 5 5 5 4 5 4 3 2 3 1 5
5 7 6 7 7 5 5 4 3 3 2 6 6 4 6 9 11 7 8 7 6 7 6 7 7 7 7 7 6 6 6 6 5 4 3 4 3 4 4 3 4 7 10 15
Wind_Direction
195 212 286 305 284 306 288 290 288 295 298 312 293 289 275 279 258 236 224 197 223 214 196 158 144 149 159 150 144 148 147 144 140 145 143 151 158 174 159 170 155 158 149 142
7 303 278 302 320 306 298 283 286 289 277 270 289 293 294 276 258 242 227 225 217 214 147 136 143 155 169 149 161 144 147 154 155 153 164 122 148 179 150 152 167 163 157 149
275 262 295 305 319 317 316 295 293 278 294 272 299 292 306 296 273 264 225 189 171 139 132 237 146 160 164 175 172 154 151 151 156 144 131 108 117 90 108 151 153 182 158 163
268 322 358 355 314 342 311 267 284 295 330 260 214 279 280 282 282 267 231 189 160 164 173 156 208 159 177 177 158 131 145 145 163 149 151 168 175 166 170 156 158 155 160 168
281 308 331 301 307 299 267 296 284 279 247 308 286 248 270 281 284 322 286 201 167 179 182 208 208 162 150 147 149 150 155 160 163 155 162 163 139 112 140 146 152 143 148 161
308 236 273 250 293 297 289 327 297 286 189 263 212 173 276 296 322 305 328 199 153 148 138 128 138 133 143 150 154 156 159 159 159 156 174 164 170 147 156 169 156 158 152 159
326 298 280 248 308 309 310 39 331 338 355 282 9 146 255 321 326 325 306 274 141 148 131 108 106 129 144 154 152 155 151 146 151 150 150 199 157 143 166 177 162 150 145 133
342 325 1 304 240 262 312 92 282 317 331 337 353 345 320 320 327 318 352 60 65 59 75 89 102 86 93 110 147 146 145 127 141 135 170 194 155 143 166 168 149 151 135 125
332 287 306 309 265 104 322 355 116 322 245 303 266 203 273 284 313 22 21 66 52 33 58 73 78 83 87 93 115 116 125 127 133 124 130 120 118 114 109 91 97 96 99 108
277 299 281 301 261 21 261 151 42 59 0 48 17 35 15 227 132 91 51 70 60 32 35 74 82 86 73 72 82 88 99 107 114 119 111 110 100 102 100 100 98 97 97 98
6 86 290 351 340 286 337 340 105 131 47 8 341 356 53 73 91 95 92 106 128 136 68 77 72 68 75 74 84 92 98 100 86 98 104 100 93 89 92 97 102 105 107 106
301 248 287 281 273 16 302 293 98 98 330 261 209 315 345 103 99 93 80 63 79 87 88 82 79 78 74 77 84 81 79 94 101 98 89 87 91 90 93 94 96 100 107 110
327 335 337 343 344 346 338 347 30 129 110 286 98 302 21 47 81 88 96 93 100 108 94 84 78 89 97 85 86 93 96 90 91 89 86 78 78 82 85 92 94 95 110 113
90 259 197 221 244 282 302 333 339 102 52 288 231 99 4 91 113 100 88 95 102 100 98 99 95 92 84 91 87 74 72 86 88 84 84 83 82 90 87 82 75 76 79 79
66 274 274 266 268 276 262 333 3 54 314 90 313 72 332 52 138 131 120 109 94 91 95 103 100 93 89 84 82 82 80 84 88 85 83 87 85 79 71 58 53 53 54 51
356 285 331 294 354 21 295 25 28 47 18 73 91 37 348 36 66 108 125 116 105 104 101 97 96 94 97 99 98 93 97 91 94 93 96 94 88 85 80 70 59 56 28 349
262 340 350 275 323 320 55 351 38 94 33 354 90 120 67 44 53 28 136 138 134 122 107 105 105 108 113 116 116 103 94 100 101 109 111 106 101 93 79 64 52 35 24 26
243 10 285 273 337 38 243 84 107 108 36 30 71 71 92 110 109 37 359 157 142 132 122 101 100 94 80 87 86 94 90 94 107 106 109 106 97 82 69 62 46 17 21 20
191 142 279 136 283 277 230 335 125 152 22 10 107 118 128 143 83 17 357 66 121 120 115 119 107 104 96 93 99 92 82 82 78 78 81 75 84 81 63 47 30 358 12 334
136 122 120 346 31 241 266 232 36 97 328 296 130 153 170 152 84 247 39 64 84 95 111 108 103 98 92 88 99 94 72 80 79 73 75 75 72 63 54 100 292 263 263 279
165 199 188 227 249 282 255 279 301 156 228 187 135 142 133 150 196 152 122 82 94 107 105 101 92 100 106 94 102 88 99 89 98 74 55 47 63 84 79 18 339 313 313 332
181 154 201 168 184 281 298 250 223 211 229 143 139 143 109 129 127 123 119 119 111 105 105 103 99 96 77 66 92 99 90 88 67 42 356 15 81 38 67 24 335 338 7 23
284 184 191 167 215 224 204 176 180 168 169 180 144 152 146 143 146 145 136 132 125 125 121 116 115 102 82 83 99 95 48 59 37 26 29 23 37 43 26 32 351 1 10 5
323 18 247 38 292 201 178 152 168 150 152 155 154 151 159 153 151 146 142 140 130 130 130 128 118 112 102 95 92 97 65 49 54 47 36 41 28 21 0 4 26 11 2 21
213 9 268 268 286 291 282 236 168 179 173 158 145 153 169 150 160 150 150 145 136 135 118 120 125 124 117 98 83 68 58 62 52 46 36 24 17 359 357 7 360 357 264 345
188 221 208 225 220 142 274 148 172 123 154 190 167 163 148 157 158 144 148 143 137 124 124 113 114 109 104 96 83 64 53 45 43 48 20 355 14 351 352 351 339 351 344 338